SCP
-0 0 0 0 0 0 0 0 0 0 0 0 1 1 0 0 1 0 0 0 0 -0 -0 0 -0 -0 -0 -0 -0 -0 -0 0 0 0 0 0 0 0 0 0 0 0 0
0 0 0 0 0 0 0 0 0 0 0 0 0 1 0 0 1 0 0 0 0 0 0 -0 -0 -0 -0 -0 -0 -0 -0 -0 0 0 0 0 0 0 0 0 0 0 0
0 0 0 0 0 0 0 0 0 0 0 0 0 1 1 0 0 0 0 0 0 -0 0 -0 0 -0 -0 0 -0 0 0 0 -0 0 0 0 0 0 0 0 0 0 0
0 0 0 0 0 0 0 0 0 0 0 0 0 1 1 0 0 0 0 0 0 -0 -0 -0 0 0 -0 -0 -0 0 0 0 -0 -0 0 0 0 0 0 0 0 0 0
0 0 -0 0 0 0 0 0 0 0 0 1 1 1 0 0 0 0 0 0 0 0 0 -0 0 0 -0 -0 -0 -0 -0 -0 0 0 0 0 0 0 0 0 0 0 0
0 0 0 0 0 0 0 0 0 0 1 1 1 1 0 0 0 0 0 0 0 0 0 -0 -0 -0 -0 -0 -0 -0 -0 -0 0 0 0 0 0 0 0 0 0 0 0
-0 -0 -0 0 0 0 0 0 0 0 1 1 0 0 0 0 0 0 0 0 0 0 0 0 -0 0 0 0 -0 -0 -0 -0 -0 -0 -0 0 0 0 0 0 0 0 0
-0 0 -0 0 0 0 0 0 0 0 0 0 0 0 0 0 0 0 0 0 0 0 0 0 0 0 0 0 0 -0 -0 -0 -0 -0 0 0 0 0 0 0 0 0 0
0 0 0 0 0 0 0 0 0 0 0 0 0 0 0 0 0 0 0 0 0 0 0 0 0 0 0 -0 0 -0 -0 -0 0 0 0 0 0 0 0 0 0 0 0
0 0 0 0 0 0 0 0 0 0 0 0 0 0 0 0 0 0 0 0 0 0 0 0 0 0 0 0 0 0 -0 0 0 0 0 0 0 0 -0 0 0 0 0
0 0 0 0 0 0 0 0 0 0 0 0 0 0 0 0 0 0 0 0 0 0 0 0 0 0 0 0 0 0 0 0 0 0 0 -0 -0 -0 0 0 0 0 0
0 0 0 0 0 0 0 0 0 0 0 0 0 0 0 0 0 0 0 0 0 0 0 0 0 0 0 0 0 -0 -0 -0 -0 -0 -0 -0 -0 0 0 0 0 0 0
0 0 0 0 0 0 0 0 0 0 0 0 0 0 0 0 0 0 0 0 0 0 0 0 0 0 0 0 0 -0 -0 -0 -0 -0 -0 -0 0 0 0 0 0 0 0
0 0 0 0 0 0 0 -0 0 0 0 0 0 0 0 0 0 0 0 0 0 0 0 0 0 0 0 0 0 -0 -0 -0 -0 -0 -0 0 0 0 0 0 0 0 0
0 0 0 0 0 0 0 -0 0 0 0 0 0 0 0 0 0 0 0 0 0 0 0 0 0 0 0 0 0 -0 -0 -0 -0 -0 0 0 0 0 0 0 0 0 0
0 0 0 0 0 0 0 0 -0 0 -0 -0 -0 0 0 0 0 0 0 0 0 0 0 0 0 0 0 0 0 -0 0 0 0 0 0 0 0 0 0 0 0 0 0
0 0 0 0 0 0 0 0 0 0 0 0 0 0 0 0 0 0 0 0 0 0 0 0 0 0 0 0 0 0 0 0 0 0 0 0 0 0 0 0 0 0 0
0 0 0 0 0 0 0 0 0 0 0 0 0 0 -0 -0 -0 -0 -0 0 0 0 0 0 0 0 0 0 0 0 0 0 0 0 0 0 0 0 0 0 0 0 0
0 0 0 0 0 0 0 0 0 0 0 0 0 -0 -0 -0 0 0 0 0 0 -0 0 0 0 0 0 0 0 0 0 0 0 0 0 0 0 0 0 0 0 0 0
0 0 0 0 0 0 0 0 0 0 0 0 0 0 0 0 -0 0 0 0 -0 0 0 0 0 0 0 0 0 0 0 0 0 0 0 0 0 0 0 0 0 0 0
0 0 0 0 0 0 0 0 0 0 0 0 0 0 0 0 0 0 -0 -0 0 0 0 0 0 0 0 0 0 0 0 0 0 0 0 0 0 0 0 0 0 0 0
0 0 0 0 0 0 0 0 0 0 0 0 0 0 0 0 0 0 0 -0 0 0 0 0 0 0 0 0 0 0 0 0 0 0 0 0 0 0 0 0 0 0 0
0 0 0 0 0 0 0 0 0 0 0 0 0 0 0 0 0 0 -0 -0 0 0 0 0 0 0 0 0 0 0 0 0 0 0 0 0 0 0 0 0 0 0 0
0 0 0 0 0 0 0 0 0 0 0 0 -0 -0 -0 -0 -0 0 0 0 0 0 0 0 0 0 0 0 0 0 0 0 0 0 0 0 0 0 0 0 0 0 0
0 0 0 0 0 0 0 -0 -0 0 0 -0 -0 -0 -0 -0 -0 -0 0 0 0 0 0 0 0 0 0 0 0 0 0 0 0 0 0 0 0 0 0 0 0 0 0
-0 -0 -0 -0 -0 -0 -0 -0 -0 0 0 -0 0 -0 -0 0 0 0 0 0 0 0 0 0 0 0 0 0 0 0 0 0 0 0 0 0 0 0 0 0 0 0 0
Wind_Speed_500mb
9 17 22 25 26 30 35 40 46 45 43 42 44 51 52 54 50 49 57 65 59 54 48 47 51 55 53 53 54 54 48 42 40 37 33 30 27 22 19 15 13 14 15
9 11 17 23 26 30 36 40 41 41 43 44 46 52 54 59 59 54 55 56 63 55 50 52 58 58 53 54 52 50 44 38 35 34 29 25 23 18 15 13 12 15 15
9 10 16 21 26 29 34 37 37 38 44 45 49 54 57 59 59 53 56 57 54 47 51 54 55 56 54 51 48 45 40 34 30 29 24 20 19 16 13 11 12 12 12
9 11 18 22 25 29 34 37 39 42 42 49 56 60 60 64 61 62 62 55 43 49 52 53 54 54 52 50 45 41 36 30 28 25 20 18 13 8 10 11 10 10 10
12 16 18 21 25 31 34 35 40 42 51 54 61 66 62 61 57 57 46 46 47 46 46 50 51 53 50 47 45 39 33 29 25 20 16 11 3 9 8 8 7 11 12
11 16 22 23 27 33 35 40 44 51 55 61 65 65 62 58 51 43 40 57 49 52 47 44 45 45 45 46 41 36 30 24 21 19 10 3 8 8 7 6 9 9 12
12 18 23 28 26 30 41 48 58 61 66 69 73 62 54 56 52 49 39 48 49 49 46 42 44 42 42 38 30 28 25 22 21 12 3 2 5 8 5 6 8 10 14
28 17 19 26 29 42 50 55 63 69 70 69 77 76 53 59 44 43 51 40 45 44 44 43 43 39 36 35 32 28 24 20 10 7 3 5 5 3 7 9 11 11 13
32 24 33 23 24 42 50 61 63 74 77 71 74 48 51 31 58 43 41 45 46 47 43 38 34 34 34 22 23 22 19 13 8 8 7 5 5 10 10 9 7 11 14
40 40 30 17 38 60 58 61 78 70 79 86 67 68 44 77 55 44 49 48 41 39 33 27 32 32 25 19 18 14 10 8 15 10 7 8 11 10 7 6 9 12 17
29 31 33 38 34 39 57 60 58 74 75 78 73 65 37 59 61 62 56 49 43 40 36 30 30 30 25 23 20 17 17 12 9 10 11 12 9 5 5 8 13 16 17
23 14 21 38 33 30 39 48 40 44 54 59 50 59 62 73 66 75 66 48 37 31 24 22 20 22 20 22 23 19 15 12 14 14 11 8 4 4 7 10 13 18 23
27 30 33 35 35 34 41 54 40 43 43 47 54 52 56 63 69 70 63 55 41 33 24 21 19 19 20 23 20 20 19 19 16 10 6 3 5 8 10 14 18 23 25
35 32 29 29 32 40 36 40 27 29 36 36 44 41 42 58 50 51 54 52 43 32 29 23 23 24 27 29 26 27 24 18 10 2 6 9 10 11 13 18 23 24 27
29 33 28 28 29 42 38 41 32 36 27 29 34 39 46 40 43 44 46 42 46 38 34 33 34 33 32 31 31 26 18 10 8 6 8 13 13 15 18 21 24 28 28
28 26 28 26 22 27 27 36 33 23 34 39 38 41 36 45 37 39 36 35 29 31 29 38 36 37 34 29 25 20 16 12 10 12 15 17 18 19 19 24 28 30 28
23 28 31 31 33 32 38 46 48 45 39 41 40 37 42 48 39 38 35 32 16 27 31 42 43 38 32 27 20 17 14 14 12 16 21 21 19 20 23 28 27 28 27
24 22 29 27 27 28 32 38 44 40 39 43 43 43 45 43 40 35 29 22 21 22 26 41 42 37 31 24 20 17 17 14 19 22 23 23 23 25 26 27 27 27 25
24 22 25 27 29 31 31 32 29 29 37 42 41 41 42 40 39 37 33 30 22 24 19 17 35 35 29 24 24 20 18 23 24 26 26 26 26 26 25 24 25 25 25
21 21 21 23 26 28 27 26 25 27 29 29 25 25 28 26 25 28 24 20 20 21 22 16 16 23 24 24 24 25 27 28 29 31 31 31 30 27 26 24 23 24 25
18 20 20 23 21 17 15 13 15 16 17 21 23 23 24 20 18 17 12 11 17 23 23 24 24 24 27 28 30 29 32 33 34 37 37 35 33 29 26 23 22 24 26
20 19 19 18 17 16 17 18 17 18 20 19 17 19 20 22 20 18 18 19 19 23 28 30 33 35 30 29 34 36 37 38 42 41 41 41 36 31 27 25 25 25 27
22 21 19 15 12 10 12 15 17 18 18 19 20 20 19 18 17 16 15 15 17 19 19 17 22 25 29 29 33 39 42 44 46 41 35 42 41 38 31 27 28 26 27
24 23 21 18 13 12 13 15 16 18 19 19 18 17 16 15 13 11 11 11 10 10 11 14 19 24 29 34 37 39 39 39 42 44 42 44 44 41 36 33 34 33 31
27 23 19 17 16 16 17 19 20 20 19 18 17 15 13 11 9 4 0 4 8 11 14 18 23 28 32 36 38 40 42 42 45 45 45 47 46 41 39 38 38 36 31
24 25 25 23 22 21 20 20 20 20 16 14 12 9 6 3 4 9 12 15 19 23 27 31 36 39 42 42 42 42 43 45 46 48 47 49 46 42 41 40 40 41 38
Wind_Direction_500mb
151 172 179 189 195 203 197 194 192 193 194 192 193 187 180 174 176 168 167 163 166 173 172 169 167 158 151 146 143 138 135 136 132 128 126 122 110 101 92 80 57 37 18
116 149 174 182 190 187 187 191 191 191 191 192 190 184 177 178 183 175 167 166 157 154 164 169 164 155 152 147 143 139 142 138 135 129 126 118 110 98 82 62 34 14 9
158 184 188 188 178 176 179 185 189 191 192 190 183 177 177 176 179 177 171 174 156 171 169 165 161 155 151 147 148 145 144 141 135 127 127 122 106 84 48 21 9 7 9
199 212 192 183 182 178 181 185 186 190 186 182 178 176 177 178 171 165 162 154 173 172 167 163 160 154 151 151 148 145 140 137 132 132 135 114 97 44 9 4 9 15 32
238 207 196 186 181 183 184 187 181 180 171 174 174 170 171 172 175 170 171 172 168 165 167 163 160 155 153 152 149 142 140 137 139 137 132 142 356 343 353 9 18 47 53
203 188 182 180 170 188 182 178 173 168 171 173 168 170 173 173 179 182 188 170 164 162 162 163 160 155 156 153 145 142 140 144 143 145 158 253 320 356 27 54 58 51 43
188 180 186 187 186 176 176 169 169 162 158 172 166 169 175 169 158 153 156 153 159 160 160 170 159 163 154 142 138 143 148 146 145 169 241 305 70 53 64 87 76 58 47
146 155 174 185 171 160 160 165 168 158 163 170 154 147 136 150 159 160 166 166 164 165 166 166 157 158 154 138 157 153 146 153 180 206 133 76 54 84 93 91 71 50 36
94 99 120 140 150 153 163 164 161 164 165 168 165 148 140 143 146 161 167 152 153 154 154 153 146 148 143 152 145 148 169 190 187 182 129 104 106 105 107 85 53 26 16
82 83 122 151 156 163 151 163 166 172 173 159 159 160 161 160 145 112 137 139 144 144 140 149 148 153 169 168 148 153 158 151 133 132 116 114 117 116 89 44 10 359 357
87 88 77 91 129 141 158 158 149 168 173 160 164 166 162 159 157 147 126 128 137 140 153 162 168 178 176 159 161 184 173 173 155 149 145 135 109 75 27 2 354 346 336
94 73 90 105 109 114 143 152 160 163 164 179 173 175 173 166 165 159 146 140 142 137 138 141 145 151 144 145 149 160 162 152 142 143 133 122 100 17 356 343 335 322 319
136 122 118 119 121 120 127 129 120 159 156 180 191 181 181 174 168 165 157 152 150 145 144 151 147 140 145 148 148 154 150 143 139 148 144 58 317 315 325 323 318 318 318
123 134 146 109 122 134 140 143 146 121 123 155 176 186 185 181 174 181 176 168 153 153 146 146 146 144 145 150 150 149 149 160 153 161 287 285 300 307 307 308 318 320 316
125 126 137 145 130 128 133 168 160 159 135 120 157 158 170 168 174 184 186 194 184 162 150 155 153 156 151 144 148 162 169 186 214 261 303 299 293 294 307 313 312 313 322
101 105 117 110 120 127 145 151 146 153 162 144 146 159 163 170 171 173 180 183 199 186 156 160 159 155 153 155 165 180 197 216 253 282 296 297 288 290 300 308 317 320 324
114 111 112 110 112 100 110 115 116 112 125 135 146 154 160 167 166 171 173 177 174 185 178 163 164 164 169 175 188 203 225 239 273 289 285 281 283 297 306 311 322 323 316
110 107 117 122 125 118 118 125 119 119 122 130 135 142 146 150 154 157 160 168 169 179 182 169 171 178 184 192 208 225 230 259 278 276 274 278 286 294 306 314 314 303 303
144 122 118 128 132 130 126 126 128 125 128 129 129 133 133 141 145 146 145 150 149 159 177 190 185 189 197 208 210 220 246 260 263 267 271 277 281 294 301 301 300 304 305
147 146 149 136 130 129 128 128 130 133 136 138 135 136 131 132 139 144 146 159 179 173 185 195 197 204 212 215 225 240 245 256 267 268 268 269 276 282 292 295 295 292 292
155 152 143 143 148 151 146 144 140 143 141 142 140 140 143 146 149 153 160 173 193 209 212 223 231 230 231 233 241 246 247 257 261 262 262 261 268 278 283 284 282 283 291
174 167 160 151 145 149 155 163 173 177 179 176 177 176 180 188 196 201 204 203 204 217 231 239 243 248 251 254 252 250 250 251 243 257 256 256 260 265 271 276 277 279 290
193 191 190 199 210 203 190 192 193 190 187 186 191 197 201 202 210 216 219 223 219 217 215 221 233 245 249 259 261 262 264 271 267 260 252 248 252 257 264 272 272 280 293
205 207 208 213 212 198 182 172 164 157 155 158 160 161 166 169 172 180 188 193 205 219 233 237 245 253 259 259 260 264 265 261 258 258 254 248 253 253 260 270 270 273 288
200 198 191 176 161 152 151 146 142 142 144 145 144 144 142 136 142 151 226 313 306 303 297 288 282 279 278 277 276 273 267 261 259 259 255 250 251 251 258 266 265 262 283
176 174 170 166 161 156 149 144 141 141 143 149 152 149 154 191 255 276 284 289 290 287 283 281 280 279 280 279 277 273 267 266 265 261 259 249 253 251 253 259 265 264 284
Wind_Speed_850mb
9 17 22 25 26 30 35 40 46 45 43 42 44 51 52 54 50 49 57 65 59 54 48 47 51 55 53 53 54 54 48 42 40 37 33 30 27 22 19 15 13 14 15
9 11 17 23 26 30 36 40 41 41 43 44 46 52 54 59 59 54 55 56 63 55 50 52 58 58 53 54 52 50 44 38 35 34 29 25 23 18 15 13 12 15 15
9 10 16 21 26 29 34 37 37 38 44 45 49 54 57 59 59 53 56 57 54 47 51 54 55 56 54 51 48 45 40 34 30 29 24 20 19 16 13 11 12 12 12
9 11 18 22 25 29 34 37 39 42 42 49 56 60 60 64 61 62 62 55 43 49 52 53 54 54 52 50 45 41 36 30 28 25 20 18 13 8 10 11 10 10 10
12 16 18 21 25 31 34 35 40 42 51 54 61 66 62 61 57 57 46 46 47 46 46 50 51 53 50 47 45 39 33 29 25 20 16 11 3 9 8 8 7 11 12
11 16 22 23 27 33 35 40 44 51 55 61 65 65 62 58 51 43 40 57 49 52 47 44 45 45 45 46 41 36 30 24 21 19 10 3 8 8 7 6 9 9 12
12 18 23 28 26 30 41 48 58 61 66 69 73 62 54 56 52 49 39 48 49 49 46 42 44 42 42 38 30 28 25 22 21 12 3 2 5 8 5 6 8 10 14
28 17 19 26 29 42 50 55 63 69 70 69 77 76 53 59 44 43 51 40 45 44 44 43 43 39 36 35 32 28 24 20 10 7 3 5 5 3 7 9 11 11 13
32 24 33 23 24 42 50 61 63 74 77 71 74 48 51 31 58 43 41 45 46 47 43 38 34 34 34 22 23 22 19 13 8 8 7 5 5 10 10 9 7 11 14
40 40 30 17 38 60 58 61 78 70 79 86 67 68 44 77 55 44 49 48 41 39 33 27 32 32 25 19 18 14 10 8 15 10 7 8 11 10 7 6 9 12 17
29 31 33 38 34 39 57 60 58 74 75 78 73 65 37 59 61 62 56 49 43 40 36 30 30 30 25 23 20 17 17 12 9 10 11 12 9 5 5 8 13 16 17
23 14 21 38 33 30 39 48 40 44 54 59 50 59 62 73 66 75 66 48 37 31 24 22 20 22 20 22 23 19 15 12 14 14 11 8 4 4 7 10 13 18 23
27 30 33 35 35 34 41 54 40 43 43 47 54 52 56 63 69 70 63 55 41 33 24 21 19 19 20 23 20 20 19 19 16 10 6 3 5 8 10 14 18 23 25
35 32 29 29 32 40 36 40 27 29 36 36 44 41 42 58 50 51 54 52 43 32 29 23 23 24 27 29 26 27 24 18 10 2 6 9 10 11 13 18 23 24 27
29 33 28 28 29 42 38 41 32 36 27 29 34 39 46 40 43 44 46 42 46 38 34 33 34 33 32 31 31 26 18 10 8 6 8 13 13 15 18 21 24 28 28
28 26 28 26 22 27 27 36 33 23 34 39 38 41 36 45 37 39 36 35 29 31 29 38 36 37 34 29 25 20 16 12 10 12 15 17 18 19 19 24 28 30 28
23 28 31 31 33 32 38 46 48 45 39 41 40 37 42 48 39 38 35 32 16 27 31 42 43 38 32 27 20 17 14 14 12 16 21 21 19 20 23 28 27 28 27
24 22 29 27 27 28 32 38 44 40 39 43 43 43 45 43 40 35 29 22 21 22 26 41 42 37 31 24 20 17 17 14 19 22 23 23 23 25 26 27 27 27 25
24 22 25 27 29 31 31 32 29 29 37 42 41 41 42 40 39 37 33 30 22 24 19 17 35 35 29 24 24 20 18 23 24 26 26 26 26 26 25 24 25 25 25
21 21 21 23 26 28 27 26 25 27 29 29 25 25 28 26 25 28 24 20 20 21 22 16 16 23 24 24 24 25 27 28 29 31 31 31 30 27 26 24 23 24 25
18 20 20 23 21 17 15 13 15 16 17 21 23 23 24 20 18 17 12 11 17 23 23 24 24 24 27 28 30 29 32 33 34 37 37 35 33 29 26 23 22 24 26
20 19 19 18 17 16 17 18 17 18 20 19 17 19 20 22 20 18 18 19 19 23 28 30 33 35 30 29 34 36 37 38 42 41 41 41 36 31 27 25 25 25 27
22 21 19 15 12 10 12 15 17 18 18 19 20 20 19 18 17 16 15 15 17 19 19 17 22 25 29 29 33 39 42 44 46 41 35 42 41 38 31 27 28 26 27
24 23 21 18 13 12 13 15 16 18 19 19 18 17 16 15 13 11 11 11 10 10 11 14 19 24 29 34 37 39 39 39 42 44 42 44 44 41 36 33 34 33 31
27 23 19 17 16 16 17 19 20 20 19 18 17 15 13 11 9 4 0 4 8 11 14 18 23 28 32 36 38 40 42 42 45 45 45 47 46 41 39 38 38 36 31
24 25 25 23 22 21 20 20 20 20 16 14 12 9 6 3 4 9 12 15 19 23 27 31 36 39 42 42 42 42 43 45 46 48 47 49 46 42 41 40 40 41 38
Wind_Direction_850mb
151 172 179 189 195 203 197 194 192 193 194 192 193 187 180 174 176 168 167 163 166 173 172 169 167 158 151 146 143 138 135 136 132 128 126 122 110 101 92 80 57 37 18
116 149 174 182 190 187 187 191 191 191 191 192 190 184 177 178 183 175 167 166 157 154 164 169 164 155 152 147 143 139 142 138 135 129 126 118 110 98 82 62 34 14 9
158 184 188 188 178 176 179 185 189 191 192 190 183 177 177 176 179 177 171 174 156 171 169 165 161 155 151 147 148 145 144 141 135 127 127 122 106 84 48 21 9 7 9
199 212 192 183 182 178 181 185 186 190 186 182 178 176 177 178 171 165 162 154 173 172 167 163 160 154 151 151 148 145 140 137 132 132 135 114 97 44 9 4 9 15 32
238 207 196 186 181 183 184 187 181 180 171 174 174 170 171 172 175 170 171 172 168 165 167 163 160 155 153 152 149 142 140 137 139 137 132 142 356 343 353 9 18 47 53
203 188 182 180 170 188 182 178 173 168 171 173 168 170 173 173 179 182 188 170 164 162 162 163 160 155 156 153 145 142 140 144 143 145 158 253 320 356 27 54 58 51 43
188 180 186 187 186 176 176 169 169 162 158 172 166 169 175 169 158 153 156 153 159 160 160 170 159 163 154 142 138 143 148 146 145 169 241 305 70 53 64 87 76 58 47
146 155 174 185 171 160 160 165 168 158 163 170 154 147 136 150 159 160 166 166 164 165 166 166 157 158 154 138 157 153 146 153 180 206 133 76 54 84 93 91 71 50 36
94 99 120 140 150 153 163 164 161 164 165 168 165 148 140 143 146 161 167 152 153 154 154 153 146 148 143 152 145 148 169 190 187 182 129 104 106 105 107 85 53 26 16
82 83 122 151 156 163 151 163 166 172 173 159 159 160 161 160 145 112 137 139 144 144 140 149 148 153 169 168 148 153 158 151 133 132 116 114 117 116 89 44 10 359 357
87 88 77 91 129 141 158 158 149 168 173 160 164 166 162 159 157 147 126 128 137 140 153 162 168 178 176 159 161 184 173 173 155 149 145 135 109 75 27 2 354 346 336
94 73 90 105 109 114 143 152 160 163 164 179 173 175 173 166 165 159 146 140 142 137 138 141 145 151 144 145 149 160 162 152 142 143 133 122 100 17 356 343 335 322 319
136 122 118 119 121 120 127 129 120 159 156 180 191 181 181 174 168 165 157 152 150 145 144 151 147 140 145 148 148 154 150 143 139 148 144 58 317 315 325 323 318 318 318
123 134 146 109 122 134 140 143 146 121 123 155 176 186 185 181 174 181 176 168 153 153 146 146 146 144 145 150 150 149 149 160 153 161 287 285 300 307 307 308 318 320 316
125 126 137 145 130 128 133 168 160 159 135 120 157 158 170 168 174 184 186 194 184 162 150 155 153 156 151 144 148 162 169 186 214 261 303 299 293 294 307 313 312 313 322
101 105 117 110 120 127 145 151 146 153 162 144 146 159 163 170 171 173 180 183 199 186 156 160 159 155 153 155 165 180 197 216 253 282 296 297 288 290 300 308 317 320 324
114 111 112 110 112 100 110 115 116 112 125 135 146 154 160 167 166 171 173 177 174 185 178 163 164 164 169 175 188 203 225 239 273 289 285 281 283 297 306 311 322 323 316
110 107 117 122 125 118 118 125 119 119 122 130 135 142 146 150 154 157 160 168 169 179 182 169 171 178 184 192 208 225 230 259 278 276 274 278 286 294 306 314 314 303 303
144 122 118 128 132 130 126 126 128 125 128 129 129 133 133 141 145 146 145 150 149 159 177 190 185 189 197 208 210 220 246 260 263 267 271 277 281 294 301 301 300 304 305
147 146 149 136 130 129 128 128 130 133 136 138 135 136 131 132 139 144 146 159 179 173 185 195 197 204 212 215 225 240 245 256 267 268 268 269 276 282 292 295 295 292 292
155 152 143 143 148 151 146 144 140 143 141 142 140 140 143 146 149 153 160 173 193 209 212 223 231 230 231 233 241 246 247 257 261 262 262 261 268 278 283 284 282 283 291
174 167 160 151 145 149 155 163 173 177 179 176 177 176 180 188 196 201 204 203 204 217 231 239 243 248 251 254 252 250 250 251 243 257 256 256 260 265 271 276 277 279 290
193 191 190 199 210 203 190 192 193 190 187 186 191 197 201 202 210 216 219 223 219 217 215 221 233 245 249 259 261 262 264 271 267 260 252 248 252 257 264 272 272 280 293
205 207 208 213 212 198 182 172 164 157 155 158 160 161 166 169 172 180 188 193 205 219 233 237 245 253 259 259 260 264 265 261 258 258 254 248 253 253 260 270 270 273 288
200 198 191 176 161 152 151 146 142 142 144 145 144 144 142 136 142 151 226 313 306 303 297 288 282 279 278 277 276 273 267 261 259 259 255 250 251 251 258 266 265 262 283
176 174 170 166 161 156 149 144 141 141 143 149 152 149 154 191 255 276 284 289 290 287 283 281 280 279 280 279 277 273 267 266 265 261 259 249 253 251 253 259 265 264 284